Theta_e
337 343 348 348 348 348 347 346 344 344 343 339 339 338 338 338 337 340 339 339 341 340 339 339 337 336 335 335 335 334 334 334 335 335 335 335 336 337 335 335 333 332 336
340 343 345 349 348 348 346 346 346 344 342 339 339 337 337 338 337 337 336 338 338 338 337 338 338 335 334 334 333 333 334 334 334 334 333 333 335 336 335 335 336 334 336
340 344 345 347 348 347 347 346 345 344 340 338 338 336 337 337 336 335 335 336 338 338 339 340 338 335 333 332 333 334 333 332 332 332 332 330 332 337 337 335 334 337 338
342 344 345 344 347 347 346 346 345 343 342 338 337 335 337 337 336 336 335 335 338 337 338 335 335 334 332 333 334 333 333 332 332 331 331 330 331 336 337 338 338 337 336
341 343 344 344 346 346 346 345 344 344 342 339 337 335 336 336 336 335 335 335 337 337 337 335 334 334 333 334 334 333 333 332 330 329 332 336 335 337 338 338 335 335 333
339 340 342 345 346 345 346 345 343 342 339 338 336 335 336 334 334 334 332 334 336 335 334 334 334 334 333 334 333 332 332 330 328 327 329 334 336 338 337 335 333 331 328
336 338 341 343 345 346 346 345 344 342 339 337 336 334 336 333 333 332 332 333 334 333 333 334 334 334 332 331 330 329 329 327 327 329 331 333 334 336 334 333 331 327 325
335 337 340 337 340 343 344 344 343 343 340 337 335 334 334 334 334 333 332 332 333 333 333 333 333 333 332 330 329 329 328 325 327 329 331 333 334 333 331 329 328 325 324
335 336 337 340 339 336 339 339 341 341 339 338 337 334 335 335 334 332 331 332 332 332 333 333 332 332 331 330 328 328 326 325 329 330 329 330 332 330 327 329 325 323 322
333 334 335 337 338 339 340 332 334 336 336 336 334 331 329 329 331 331 330 332 332 332 332 331 330 330 330 329 327 325 323 324 326 327 327 329 330 327 328 326 323 322 321
330 332 334 334 335 337 337 331 330 331 331 330 329 326 326 330 330 329 328 331 331 331 330 329 329 327 326 327 326 323 323 325 324 325 325 329 328 326 324 323 322 321 320
326 329 332 332 332 334 334 333 334 333 332 330 329 328 327 327 327 327 324 325 327 327 329 328 327 324 322 325 325 322 324 323 322 323 324 327 325 326 323 321 320 319 319
326 328 330 331 331 333 333 332 331 331 329 328 327 327 326 325 326 326 326 325 325 319 323 324 324 324 324 325 323 323 323 323 320 321 321 324 323 324 321 319 319 318 317
326 327 328 330 330 331 331 330 329 328 327 326 325 325 325 324 324 323 323 323 322 323 322 324 324 324 324 323 324 322 320 319 317 317 317 319 322 323 320 318 318 317 316
324 326 327 329 329 329 329 329 328 326 325 325 324 325 324 324 322 321 321 321 320 321 323 324 324 324 324 323 323 323 320 316 315 314 317 317 322 322 319 317 316 315 315
325 325 328 328 329 327 328 328 327 326 325 324 324 324 324 322 321 319 319 319 320 321 323 324 324 324 324 323 322 323 321 315 313 313 314 318 319 319 317 315 315 314 314
326 326 326 327 328 327 327 327 327 326 324 323 323 324 324 322 318 318 319 319 321 323 323 323 323 323 322 319 321 322 319 314 310 311 310 311 313 314 315 313 312 312 313
327 325 326 327 327 328 327 325 326 326 325 323 323 324 324 323 320 319 320 321 322 323 323 323 323 322 320 318 320 319 315 312 309 308 307 306 307 310 311 310 310 311 312
327 327 325 326 326 327 328 327 325 325 325 325 324 324 324 324 322 321 320 322 322 322 322 322 322 321 319 316 318 317 313 309 307 307 306 305 305 308 309 309 306 306 310
326 327 327 326 326 326 326 325 325 324 324 324 324 324 324 324 323 322 321 322 322 321 321 321 321 320 318 315 311 311 312 310 308 308 308 306 304 304 306 306 304 305 305
324 324 326 326 327 325 322 321 321 321 321 320 322 323 323 324 323 322 322 321 321 320 321 321 320 319 316 312 306 304 305 306 306 306 307 306 302 301 302 302 301 303 303
322 323 324 326 327 326 325 325 323 324 321 323 321 320 322 322 323 322 322 321 320 320 320 320 319 317 318 312 310 307 306 305 301 302 304 303 301 299 298 298 297 298 301
320 321 323 324 326 328 328 325 320 319 317 318 318 319 319 321 321 322 321 322 320 320 320 320 319 318 317 315 312 311 303 303 302 299 299 301 301 299 297 296 295 295 295
319 322 323 323 324 326 328 327 324 323 320 321 320 321 321 320 320 321 321 321 320 320 320 320 320 320 318 316 313 312 312 310 306 305 299 298 299 298 297 295 294 292 290
318 320 322 323 323 325 326 327 326 324 325 325 322 319 320 319 321 320 320 320 320 320 320 320 318 318 318 319 316 313 313 311 306 304 306 308 295 297 297 295 293 292 290
316 319 321 321 321 323 324 326 325 324 324 323 320 319 318 319 319 320 320 320 320 320 320 320 320 319 318 318 317 314 313 309 307 305 303 308 307 300 295 294 292 291 289
Wind_Speed
4 5 7 10 13 15 16 16 16 13 13 14 15 14 14 14 13 13 13 14 16 16 16 15 17 18 16 17 17 18 18 18 17 17 17 18 17 16 16 14 9 8 14
9 6 8 10 13 14 15 15 15 14 13 15 14 13 15 14 14 14 13 13 15 16 15 15 17 16 17 17 17 17 18 17 16 16 15 16 15 15 14 14 13 10 11
10 6 9 9 12 13 13 13 13 14 14 14 13 13 14 13 13 14 14 13 15 15 15 16 18 16 16 15 16 17 17 15 13 11 12 5 8 12 13 10 8 13 15
9 8 9 10 11 13 12 12 12 12 13 13 13 13 14 13 11 14 14 13 14 15 15 16 16 15 15 16 16 16 15 14 12 10 7 6 5 9 13 18 21 21 21
8 8 9 10 11 11 11 10 12 13 12 13 14 12 14 14 11 14 13 12 13 15 15 14 16 16 15 15 15 14 13 13 13 10 9 9 6 11 17 20 18 20 20
7 7 9 10 12 11 11 11 14 14 13 12 11 12 13 13 13 13 12 12 13 13 13 14 16 15 15 14 14 13 13 12 10 9 10 10 8 17 18 19 18 20 17
8 6 7 9 10 11 11 13 14 14 13 12 10 10 13 11 13 11 12 11 13 12 13 14 13 14 14 14 13 13 12 12 9 9 8 7 9 18 18 19 19 17 17
10 7 6 7 7 9 11 12 14 14 13 12 12 8 11 11 11 11 12 12 12 12 13 13 13 12 11 11 11 12 12 11 8 8 8 7 11 17 17 15 16 16 16
8 8 6 6 7 8 9 9 11 13 12 13 12 11 10 10 10 11 11 11 12 12 13 12 12 11 9 9 10 12 12 11 9 7 8 5 14 15 14 15 14 15 14
7 7 7 7 6 6 7 9 8 9 11 11 9 10 8 10 9 9 7 9 11 11 11 11 10 10 10 9 10 10 9 9 9 8 5 4 14 12 14 13 12 12 13
5 7 7 7 8 7 7 6 8 9 9 9 8 9 8 5 6 7 6 8 8 9 9 10 10 9 9 7 8 7 6 4 6 5 3 8 12 9 11 11 10 11 11
10 7 8 8 7 8 5 7 7 7 6 6 6 7 5 5 5 5 6 7 7 7 7 8 8 8 5 3 3 4 3 4 4 5 4 9 8 9 10 9 8 9 10
13 8 9 9 8 9 7 5 3 4 4 5 7 7 7 5 4 3 3 3 3 3 2 3 3 3 4 3 3 2 3 2 2 3 4 7 3 8 8 6 7 7 8
11 12 11 9 9 8 6 6 6 5 4 5 6 6 5 3 4 4 3 3 2 1 2 2 2 2 3 3 3 4 3 1 1 1 3 4 5 5 7 5 5 5 6
11 12 10 9 9 8 8 6 6 6 6 6 6 6 5 5 5 4 3 3 3 3 2 2 2 2 2 2 3 4 3 3 2 1 2 6 6 5 6 3 3 3 4
11 12 12 11 10 10 9 9 7 6 6 5 6 7 7 5 5 5 5 5 4 4 3 2 2 1 1 2 3 4 4 3 3 2 2 4 8 6 5 2 1 0 2
11 11 12 13 12 11 11 9 7 7 6 6 6 8 8 7 7 6 5 4 4 3 4 3 3 2 2 1 2 4 5 5 4 3 2 2 5 6 4 2 1 2 1
11 12 12 10 12 12 11 9 7 7 7 7 7 6 9 8 8 7 5 5 5 4 3 3 3 3 2 2 3 4 4 5 4 4 3 2 2 4 3 3 1 3 4
12 12 12 12 13 13 11 8 9 10 8 7 7 7 9 9 9 7 6 6 5 5 5 4 4 3 3 3 4 3 4 5 6 5 7 7 7 6 5 6 3 2 5
12 11 11 11 12 12 8 6 5 6 7 7 8 8 10 8 9 8 7 7 6 5 5 4 5 3 2 3 3 3 3 4 4 6 6 5 5 6 7 7 5 4 2
12 13 14 14 14 10 6 6 5 7 6 6 8 10 11 10 11 10 8 8 7 7 7 7 4 6 4 4 3 1 3 5 7 7 5 6 7 8 8 7 4 4 3
15 16 15 15 14 13 10 8 5 7 6 7 7 9 11 12 12 10 10 8 8 6 7 7 7 4 4 7 3 1 2 3 7 9 7 8 10 7 6 7 6 6 5
16 18 16 16 17 15 14 6 3 2 1 4 5 7 10 12 11 11 10 8 8 8 7 9 9 10 6 6 7 2 1 5 1 3 10 10 10 8 8 9 9 8 7
19 15 17 18 18 16 16 13 13 11 10 8 7 7 7 11 12 11 11 11 10 8 9 9 8 9 8 8 4 7 6 3 5 5 5 7 10 12 12 9 9 8 7
14 15 16 17 16 17 17 17 14 16 11 8 7 9 10 10 13 12 13 12 11 9 10 10 9 11 9 8 7 4 8 8 6 7 10 6 5 8 9 10 7 5 2
11 12 13 15 18 17 17 18 18 18 15 10 9 9 8 8 8 12 12 11 11 10 11 10 11 12 10 10 9 9 9 6 6 8 10 12 10 4 7 8 8 6 8
Wind_Direction
171 165 146 136 130 120 114 113 111 107 103 102 99 99 99 100 101 100 97 96 93 93 90 90 88 84 80 81 77 78 75 73 66 67 71 70 69 69 71 74 62 63 63
146 163 147 142 130 121 119 118 115 110 109 103 104 99 104 102 104 104 100 103 98 91 85 94 96 86 83 81 83 82 79 74 69 66 63 65 72 70 63 50 52 61 52
138 148 145 139 126 124 120 121 118 117 112 111 106 110 98 97 99 105 105 103 101 94 86 95 93 88 87 88 86 82 76 66 61 57 60 61 69 71 66 61 43 38 56
134 135 137 130 128 130 126 128 124 118 116 116 106 109 101 98 102 99 100 104 102 96 91 95 89 87 89 90 84 79 69 56 42 41 43 34 11 71 66 60 63 53 48
131 130 135 131 134 137 133 132 130 119 119 112 115 111 105 101 96 100 97 102 102 93 92 97 91 92 94 89 83 75 65 52 36 26 33 25 35 80 79 68 55 57 51
136 136 142 138 141 142 141 139 134 124 123 120 118 116 104 107 98 98 102 106 100 97 99 97 97 92 90 84 78 68 59 48 37 35 27 20 63 71 65 59 59 56 51
145 148 156 143 151 146 143 139 139 130 125 120 114 114 105 103 101 102 102 101 103 101 95 90 92 92 87 82 74 68 58 50 42 36 26 28 60 66 60 58 62 59 54
149 149 152 150 152 150 145 141 137 131 131 123 119 122 112 109 108 110 108 109 109 104 99 94 91 92 93 86 80 71 59 50 48 36 38 46 65 64 64 66 64 60 58
150 143 144 137 141 141 135 132 134 135 134 132 132 133 121 123 116 116 116 114 117 115 107 98 93 88 89 94 79 66 57 51 55 50 47 33 57 62 65 70 61 60 63
155 153 150 139 135 137 144 128 121 125 127 124 122 127 116 136 109 96 83 110 115 112 106 98 87 80 81 106 91 74 66 57 63 60 43 24 68 64 75 68 61 70 66
162 168 153 151 147 153 147 141 130 127 120 112 115 105 97 98 101 95 85 86 96 96 87 74 75 79 76 92 105 87 70 69 69 60 28 36 73 78 69 65 76 74 74
181 186 171 162 157 154 151 153 146 140 141 142 137 125 119 123 120 115 91 82 88 88 82 83 94 100 96 99 131 95 89 100 84 66 48 20 73 84 74 75 80 76 73
187 193 191 174 171 165 160 157 155 151 148 152 151 152 151 146 142 138 138 136 130 89 90 85 103 93 108 119 118 125 128 128 107 104 73 29 48 97 84 81 77 79 79
180 191 198 185 175 178 164 168 165 164 165 167 168 158 152 149 156 157 150 143 147 136 130 113 131 129 122 124 138 154 151 130 120 120 105 72 352 121 98 90 87 82 86
187 187 195 196 181 176 175 173 173 182 181 176 176 170 167 171 174 166 165 173 180 185 192 187 176 144 132 149 170 189 178 146 129 111 88 77 66 97 92 92 107 115 110
197 191 187 194 193 178 181 183 186 184 189 186 182 183 180 181 181 181 183 194 199 201 192 196 195 193 173 211 222 206 163 150 125 114 96 90 74 78 98 85 52 144 110
203 188 188 191 190 189 193 191 190 192 188 191 203 192 186 187 187 190 197 200 209 207 206 200 202 192 208 178 181 160 158 160 143 136 130 111 101 73 92 89 6 335 319
197 191 187 190 192 196 194 192 193 192 193 201 204 206 204 200 199 199 202 211 208 204 206 209 204 210 205 199 169 174 168 167 162 158 149 162 166 153 135 133 38 320 256
203 195 191 189 197 200 201 192 194 194 198 206 202 206 211 209 208 209 211 222 209 208 208 209 206 209 194 185 174 185 191 181 184 176 190 192 192 184 175 165 165 281 293
201 203 193 191 200 200 197 192 195 201 205 203 208 212 209 210 210 210 218 224 208 209 211 206 213 198 210 178 167 187 220 243 221 218 214 210 207 208 195 188 193 206 299
198 197 199 195 195 186 185 196 205 211 209 212 211 207 209 209 209 211 217 218 211 210 214 207 203 206 197 168 134 213 244 240 238 237 227 225 224 222 217 204 201 202 200
199 204 204 203 196 197 200 199 194 190 210 213 204 206 208 207 208 208 213 216 209 211 215 208 200 196 211 178 176 114 260 223 239 234 227 226 230 224 228 224 215 214 212
202 203 204 202 201 199 200 178 147 134 106 191 204 210 212 210 208 207 210 214 208 205 213 209 206 209 218 200 210 179 172 240 329 185 231 231 231 221 219 217 217 215 208
217 201 203 202 201 201 192 196 202 208 213 216 207 212 206 202 209 206 209 208 212 210 214 212 206 210 213 225 203 235 250 234 245 277 220 234 228 225 218 216 214 205 197
207 204 203 203 202 200 197 200 205 216 221 217 197 196 208 201 210 207 208 209 211 212 219 214 205 210 207 224 218 194 225 231 231 245 273 240 235 235 226 219 207 202 171
198 197 200 200 207 199 198 199 202 209 209 204 200 205 208 207 206 211 210 212 216 216 217 214 217 214 210 220 221 220 220 217 203 216 241 259 256 211 214 212 191 177 175